Location: Nickerson Gardens
(33.9320°N, 118.2484°W)
Time: 18:46:59
(UTC+00:00)

X-37B - Pass Details

Date: 29 October 2020
Orbit: 384 x 389 km, 45.0° (Epoch: 12 November)

Event Time Altitude Azimuth Distance (km) Brightness Sun altitude
Rises 13:18:17 0° 200° (SSW) 2,249 4.3 -11.4°
Reaches altitude 10° 13:20:51 10° 179° (S) 1,401 3.5 -10.8°
Maximum altitude 13:22:56 16° 137° (SE) 1,084 3.6 -10.4°
Drops below altitude 10° 13:25:02 10° 95° (E) 1,408 5.0 -10.0°
Sets 13:27:36 0° 74° (ENE) 2,267 5.7 -9.5°
